Starlink 32291

operational
NORAD ID: 62442 Int'l Des: 2024-251 Owner: SPXS Country: US Constellation: starlink
LEOCIRCULAR

About Starlink 32291

Description loading...

Live Position

Loading 3D Globe...

Upcoming Passes

Altitude History

Altitude vs Time

uPlot chart will show altitude changes over time

Two-Line Element Set

1 62442U 24251L 25305.44439318 .00019505 00000-0 66850-3 0 9991
2 62442 53.1570 210.9801 0001209 95.1857 264.9281 15.30221462 48009
Epoch: Nov 1, 2025 • Age: 16 hours

Current Status

Altitude 475.2 km
Velocity 7.63 km/s
Sub-Earth Point 19.39°N, 144.8°E
Launch Date Dec 29, 2024
Age 0.8 years
Type internet

Technical Details

Classification Payload
Mass 730.00 kg
Dry Mass 700.00 kg
Total Mass 730.00 kg
Length 0.30 m
Diameter 4.10 m
Span 29.00 m
Shape Box + pan
Manufacturer SPXS
Bus Type Starlink V2M
Phase Status In Orbit
Owner/State SPXS/US

Large Constellations

Loading constellations...